Regional Weather Roundup
Issued by NWS Sterling, VA

Home | Current Version | Previous Version | Text Only | Print | Product List | Glossary Off
Versions: 1 2 3 4 5 6 7 8 9 10 11 12 13 14 15 16 17 18 19 20 21 22 23 24 25 26 27 28 29 30 31 32 33 34 35 36 37 38 39 40 41 42 43 44 45 46 47 48 49 50

000
ASUS41 KLWX 290410
RWRLWX

REGIONAL WEATHER ROUNDUP
NATIONAL WEATHER SERVICE BALTIMORE MD/WASHINGTON DC
1200 AM EDT FRI MAY 29 2015

Note: "FAIR" indicates few or no clouds below 12,000 feet
with no significant weather and/or obstructions to visibility.
 TC=TEMPERATURE CELSIUS

 * =Non NWS site. Station does not report precipitation (e.g. rain,
    snow, etc.), thunder, or fog.

DCZ001-MDZ009-015-VAZ040>042-051-053>054-290500-
WASHINGTON METRO

CITY           SKY/WX    TMP DP  RH WIND       PRES   REMARKS
WASHINGTON NAT PTCLDY    78  69  73 CALM      30.21R
DULLES         PTCLDY    71  66  84 CALM      30.21S
FT BELVOIR     PTCLDY    70  67  91 SE2       30.20S
QUANTICO       PTCLDY    75  69  81 CALM      30.21R
COLLEGE PARK*  PTCLDY    72  64  78 CALM      30.20S
LEESBURG*      CLEAR     73  68  83 CALM      30.23R
MANASSAS*      MOCLDY    70  70 100 CALM      30.21S
GAITHERSBURG*  CLEAR     73  64  73 CALM      30.25S

$$

MDZ006>007-011-014-290500-
BALTIMORE METRO

CITY           SKY/WX    TMP DP  RH WIND       PRES   REMARKS
BWI AIRPORT    PTCLDY    75  66  73 SE8       30.20S
MD SCIENCE CTR   N/A     78  66  66 MISG      30.21S
MARTIN STATE   MOCLDY    73  70  88 CALM      30.22S
ANNAPOLIS      CLOUDY    73  69  87 SE8       30.21S
FORT MEADE*    PTCLDY    70  66  88 E6        30.23S

$$

MDZ012-015-019>023-290500-
MARYLAND EASTERN SHORE

CITY           SKY/WX    TMP DP  RH WIND       PRES   REMARKS
OCEAN CITY     CLEAR     68  63  84 SW10      30.23S
SALISBURY      PTCLDY    67  62  84 CALM      30.22S
CAMBRIDGE*     MOCLDY    72  68  88 SE3       30.21S
EASTON*        MOCLDY    74  74 100 S5        30.25S

$$

MDZ017>025-290500-
SOUTHERN MARYLAND

CITY           SKY/WX    TMP DP  RH WIND       PRES   REMARKS
PATUXENT RIVER CLOUDY    71  67  87 CALM      30.21R
ST INIGOES     CLOUDY    73  68  84 CALM      30.20S
LEONARDTOWN*   CLOUDY    70  66  88 CALM      30.22S

$$

MDZ003>005-290500-
NORTH CENTRAL MARYLAND

CITY           SKY/WX    TMP DP  RH WIND       PRES   REMARKS
FREDERICK*     CLEAR     68  66  94 CALM      30.25R
HAGERSTOWN APT PTCLDY    74  56  53 CALM      30.23S
WESTMINSTER*   CLEAR     72  64  78 CALM      30.24S

$$

MDZ501>502-290500-
WESTERN MARYLAND

CITY           SKY/WX    TMP DP  RH WIND       PRES   REMARKS
OAKLAND*       CLEAR     63  63 100 E7        30.33S
CUMBERLAND*    PTCLDY    70  61  73 N3        30.29R

$$

VAZ025>031-290500-
SHENANDOAH VALLEY

CITY           SKY/WX    TMP DP  RH WIND       PRES   REMARKS
WINCHESTER*    CLOUDY    70  64  83 CALM      30.23S
FRONT ROYAL*   CLOUDY    68  64  88 CALM      30.23S
LURAY*         FAIR      66  66 100 CALM      30.24S
NEW MARKET*    MOCLDY    66  64  95 CALM      30.23S
STAUNTON*      PTCLDY    69  65  88 CALM      30.27F
WAYNESBORO*    FAIR      66  64  90 CALM      30.26F

$$

WVZ021-048>050-054>055-290500-
EASTERN WEST VIRGINIA PANHANDLE

CITY           SKY/WX    TMP DP  RH WIND       PRES   REMARKS
MARTINSBURG    CLOUDY    73  60  63 CALM      30.23S
PETERSBURG*    MOCLDY    67  63  88 CALM      30.26S

$$

VAZ036>039-050-290500-
CENTRAL FOOTHILLS

CITY           SKY/WX    TMP DP  RH WIND       PRES   REMARKS
CHARLOTTESVILL CLEAR     68  65  90 CALM      30.23R
CULPEPER*      CLEAR     64  63  96 CALM      30.22S
ORANGE*        CLEAR     68  66  94 CALM      30.24R
GORDONSVILLE*  FOG       66  65  99 CALM      30.22R VSB 1
WARRENTON*     FAIR      67  66  99 CALM      30.21S FOG

$$

VAZ055>057-290500-
NORTH AND CENTRAL PIEDMONT

CITY           SKY/WX    TMP DP  RH WIND       PRES   REMARKS
FREDERICKSBRG* MOCLDY    74  71  90 CALM      30.19S
STAFFORD*      PTCLDY    69  68  96 CALM      30.25R

$$

NCZ024-NYZ072-PAZ021-071-VAZ022-071-290500-
OTHER REGIONAL OBSERVATIONS

CITY           SKY/WX    TMP DP  RH WIND       PRES   REMARKS
NEW YORK CITY  PTCLDY    74  55  51 NE10G16   30.27R
PHILADELPHIA   PTCLDY    76  53  44 NE9       30.23R
PITTSBURGH     CLEAR     69  52  54 CALM      30.25F
ROANOKE        PTCLDY    71  64  78 CALM      30.26S
RICHMOND       CLOUDY    75  68  78 SE3       30.21R
RALEIGH        MOCLDY    73  69  87 SW3       30.22S

$$

ANZ530>537-290500-
MARINE OBSERVATIONS

STATION/POSITION TIME  TEMP    WIND        PRES
                       AIR SEA DIR/SP/G
                 (UTC) (F)     (DEG/KT/KT) (MB)
THOMAS PT LIGHT  0400   72 71   70/  2/  3 1023.7R
BALT KEY BRIDGE  0300   73     360/  4/  5 1023.1R
COVE POINT       0300   71     190/  9/ 10 1023.5R
LEWISETTA        0300   74 74              1022.4R
SOLOMONS ISLAND  0300      74                N/A
PINEY POINT      0300          140/  6/  6   N/A

$$




USA.gov is the U.S. government's official web portal to all federal, state and local government web resources and services.